AEROCUBE 5C

Last updated on Mon Sep 21 2026 00:03:44 GMT+0000 (Coordinated Universal Time)

1 40965U 15058B 26263.23712172 .00001079 00000+0 10385-3 0 9993 2 40965 64.7672 326.7792 0138305 27.4665 333.3668 14.91877539379830
UTC large
Height (km)
Speed (km/s)
/
Latitude / Longitude
Inclination (degrees)
Orbital Period (minutes)
Azimuth
Elevation
Range (km)
Doppler Factor

Next 0 passes for location: London (51.5072 / 0.1276)

No passes found over London.
AEROCUBE 5C